Weather History for Algona, IA

Change the Weather History Date:

Wednesday, February 20, 2013

  Actual Average Record
Temperature  
Mean Temperature 10 °F -  
Max Temperature 23 °F 31 °F 53 °F (2003)
Min Temperature -4 °F 17 °F -14 °F (2008)
Degree Days  
Heating Degree Days 56    
Moisture  
Dew Point -1 °F    
Average Humidity 67    
Maximum Humidity 86    
Minimum Humidity 46    
Precipitation  
Precipitation 0.00 in - - ()
Sea Level Pressure  
Sea Level Pressure 30.34 in    
Wind  
Wind Speed 8 mph (NE)    
Max Wind Speed 14 mph    
Max Gust Speed 16 mph    
Visibility 10 miles    
Events Snow    
Averages and records for this station are not official NWS values.
T = Trace of Precipitation, MM = Missing Value Source: NWS Daily Summary

Daily Weather History Graph

Daily Weather History Graph

Search for Another Location

Airport:

Trip Planner

Search our weather history database for the weather conditions in past years. The results will help you decide how hot, cold, wet, or windy it might be!

Date:

Astronomy

Feb. 20, 2013 Rise Set
Actual Time 7:06 AM CST 5:55 PM CST
Civil Twilight 6:38 AM CST 6:24 PM CST
Nautical Twilight 6:05 AM CST 6:57 PM CST
Astronomical Twilight 5:32 AM CST 7:30 PM CST
Moon 1:12 PM CST (2/20) 3:32 AM CST (2/20)
Length of Visible Light 11h 46m
Length of Day
10h 48m
Waxing Gibbous, 76% of the Moon is Illuminated
Feb 20
Waxing Gibbous
Feb 25
Full
Mar 4
Last Quarter
Mar 11
New
Mar 19
First Quarter

Hourly Weather History & Observations

Time (CST) Temp. Windchill Dew Point Humidity Pressure Visibility Wind Dir Wind Speed Gust Speed Precip Events Conditions
12:15 AM -0.4 °F -19.2 °F -9.4 °F 66% 30.34 in - North 13.8 mph - N/A   Clear
12:35 AM -2.2 °F -18.0 °F -9.4 °F 71% 30.35 in 10.0 mi NNW 9.2 mph 16.1 mph N/A   Clear
12:55 AM -2.2 °F -18.0 °F -9.4 °F 71% 30.35 in 10.0 mi North 9.2 mph - N/A   Clear
1:15 AM -2.2 °F -18.9 °F -9.4 °F 71% 30.36 in 10.0 mi North 10.4 mph - N/A   Clear
1:35 AM -2.2 °F -14.2 °F -9.4 °F 71% 30.37 in 10.0 mi NNW 5.8 mph - N/A   Clear
1:55 AM -2.2 °F -16.8 °F -9.4 °F 71% 30.37 in 10.0 mi NNW 8.1 mph - N/A   Clear
2:15 AM -2.2 °F -15.6 °F -9.4 °F 71% 30.37 in 10.0 mi North 6.9 mph - N/A   Clear
2:35 AM -2.2 °F -15.6 °F -9.4 °F 71% 30.36 in 10.0 mi North 6.9 mph - N/A   Clear
2:55 AM -2.2 °F -16.8 °F -9.4 °F 71% 30.36 in 10.0 mi North 8.1 mph - N/A   Clear
3:15 AM -2.2 °F -16.8 °F -9.4 °F 71% 30.35 in 10.0 mi North 8.1 mph - N/A   Clear
3:35 AM -2.2 °F -16.8 °F -9.4 °F 71% 30.36 in 10.0 mi North 8.1 mph - N/A   Clear
3:55 AM -2.2 °F -14.2 °F -9.4 °F 71% 30.36 in 10.0 mi North 5.8 mph - N/A   Clear
4:15 AM -2.2 °F -15.6 °F -9.4 °F 71% 30.36 in 10.0 mi North 6.9 mph - N/A   Clear
4:35 AM -2.2 °F -15.6 °F -9.4 °F 71% 30.37 in 10.0 mi North 6.9 mph - N/A   Clear
4:55 AM -2.2 °F -14.2 °F -9.4 °F 71% 30.37 in 10.0 mi North 5.8 mph - N/A   Clear
5:15 AM -2.2 °F -16.8 °F -9.4 °F 71% 30.36 in 10.0 mi NNE 8.1 mph - N/A   Clear
5:35 AM -4.0 °F -17.8 °F -9.4 °F 78% 30.36 in 10.0 mi North 6.9 mph - N/A   Clear
5:55 AM -4.0 °F -22.1 °F -9.4 °F 78% 30.34 in 10.0 mi NNE 11.5 mph - N/A Snow Light Snow
6:15 AM -4.0 °F -23.0 °F -9.4 °F 78% 30.34 in 10.0 mi NNE 12.7 mph - N/A Snow Light Snow
6:35 AM -4.0 °F -20.2 °F -9.4 °F 78% 30.36 in 10.0 mi NNE 9.2 mph - N/A   Clear
6:55 AM -4.0 °F -14.6 °F -11.2 °F 71% 30.36 in 10.0 mi North 4.6 mph - N/A   Clear
7:15 AM -4.0 °F -14.6 °F -9.4 °F 78% 30.36 in 10.0 mi North 4.6 mph - N/A   Clear
7:35 AM -4.0 °F -16.3 °F -9.4 °F 78% 30.36 in 10.0 mi NNE 5.8 mph - N/A   Clear
7:55 AM -2.2 °F -19.9 °F -9.4 °F 71% 30.36 in 10.0 mi NNE 11.5 mph - N/A Snow Light Snow
8:15 AM -2.2 °F -18.0 °F -9.4 °F 71% 30.37 in 10.0 mi NNE 9.2 mph - N/A   Clear
8:35 AM -0.4 °F -15.7 °F -7.6 °F 72% 30.38 in 10.0 mi NNE 9.2 mph - N/A Snow Light Snow
8:55 AM -0.4 °F -13.4 °F -7.6 °F 72% 30.39 in 10.0 mi North 6.9 mph - N/A   Clear
9:15 AM 1.4 °F -11.3 °F -7.6 °F 66% 30.39 in 10.0 mi NNE 6.9 mph - N/A Snow Light Snow
9:35 AM 3.2 °F -9.1 °F -5.8 °F 66% 30.40 in 10.0 mi North 6.9 mph - N/A   Clear
9:55 AM 3.2 °F -7.8 °F -5.8 °F 66% 30.40 in 10.0 mi NE 5.8 mph - N/A   Clear
10:15 AM 5.0 °F -5.6 °F -5.8 °F 61% 30.40 in 10.0 mi NE 5.8 mph - N/A   Clear
10:35 AM 6.8 °F -4.8 °F -4.0 °F 61% 30.39 in 10.0 mi NNE 6.9 mph - N/A   Clear
10:55 AM 6.8 °F -3.5 °F -4.0 °F 61% 30.38 in 10.0 mi NE 5.8 mph - N/A   Clear
11:15 AM 8.6 °F 0.1 °F -2.2 °F 62% 30.37 in 10.0 mi Variable 4.6 mph - N/A   Clear
11:55 AM 12.2 °F 4.3 °F -2.2 °F 53% 30.39 in 10.0 mi Variable 4.6 mph - N/A   Clear
12:15 PM 12.2 °F 1.7 °F -2.2 °F 53% 30.39 in 10.0 mi East 6.9 mph - N/A   Clear
12:35 PM 14.0 °F 3.9 °F -0.4 °F 53% 30.38 in 10.0 mi East 6.9 mph - N/A   Clear
12:55 PM 15.8 °F 5.1 °F 1.4 °F 53% 30.37 in 10.0 mi East 8.1 mph - N/A   Clear
1:15 PM 15.8 °F 7.2 °F 1.4 °F 53% 30.37 in 10.0 mi Variable 5.8 mph 11.5 mph N/A   Clear
1:35 PM 15.8 °F 8.6 °F 1.4 °F 53% 30.36 in 10.0 mi SE 4.6 mph - N/A   Clear
1:55 PM 17.6 °F 12.3 °F 1.4 °F 49% 30.35 in 10.0 mi ENE 3.5 mph - N/A   Clear
2:15 PM 17.6 °F 7.3 °F 1.4 °F 49% 30.33 in 10.0 mi ENE 8.1 mph - N/A Snow Light Snow
2:55 PM 19.4 °F 7.9 °F 3.2 °F 49% 30.31 in 10.0 mi ENE 10.4 mph - N/A   Clear
3:15 PM 21.2 °F 9.5 °F 5.0 °F 50% 30.30 in 10.0 mi ENE 11.5 mph - N/A   Clear
3:35 PM 23.0 °F 13.1 °F 5.0 °F 46% 30.31 in 10.0 mi East 9.2 mph - N/A   Clear
3:55 PM 21.2 °F 12.6 °F 6.8 °F 54% 30.31 in 10.0 mi East 6.9 mph - N/A Snow Light Snow
4:15 PM 21.2 °F 13.6 °F 6.8 °F 54% 30.32 in 10.0 mi ESE 5.8 mph - N/A   Clear
4:35 PM 21.2 °F 14.9 °F 6.8 °F 54% 30.32 in 10.0 mi East 4.6 mph - N/A   Clear
4:55 PM 21.2 °F 13.6 °F 6.8 °F 54% 30.33 in 10.0 mi ESE 5.8 mph - N/A   Clear
5:15 PM 21.2 °F 16.4 °F 6.8 °F 54% 30.31 in 10.0 mi East 3.5 mph - N/A   Clear
5:35 PM 21.2 °F 13.6 °F 6.8 °F 54% 30.30 in 10.0 mi ENE 5.8 mph - N/A   Clear
5:55 PM 19.4 °F 10.4 °F 6.8 °F 58% 30.29 in 10.0 mi ENE 6.9 mph - N/A Snow Light Snow
6:15 PM 19.4 °F 14.3 °F 6.8 °F 58% 30.29 in 10.0 mi NE 3.5 mph - N/A   Clear
6:35 PM 19.4 °F 11.5 °F 8.6 °F 63% 30.29 in 10.0 mi NE 5.8 mph - N/A   Clear
6:55 PM 19.4 °F 9.5 °F 8.6 °F 63% 30.29 in 10.0 mi NE 8.1 mph - N/A Snow Light Snow
7:15 PM 17.6 °F 6.4 °F 10.4 °F 73% 30.29 in 10.0 mi NE 9.2 mph - N/A   Clear
7:35 PM 15.8 °F 5.1 °F 8.6 °F 73% 30.28 in 10.0 mi NE 8.1 mph - N/A   Clear
7:55 PM 15.8 °F 5.1 °F 10.4 °F 79% 30.28 in 10.0 mi NE 8.1 mph - N/A   Clear
8:15 PM 15.8 °F 3.4 °F 10.4 °F 79% 30.28 in 10.0 mi NE 10.4 mph - N/A Snow Light Snow
8:35 PM 15.8 °F 2.7 °F 10.4 °F 79% 30.29 in 10.0 mi ENE 11.5 mph - N/A Snow Light Snow
8:55 PM 15.8 °F 3.4 °F 10.4 °F 79% 30.29 in 10.0 mi ENE 10.4 mph - N/A Snow Light Snow
9:15 PM 15.8 °F 3.4 °F 10.4 °F 79% 30.29 in 10.0 mi ENE 10.4 mph - N/A   Clear
9:35 PM 15.8 °F 4.2 °F 10.4 °F 79% 30.29 in 10.0 mi ENE 9.2 mph - N/A   Clear
9:55 PM 14.0 °F 2.9 °F 10.4 °F 86% 30.29 in 10.0 mi ENE 8.1 mph - N/A   Clear
10:15 PM 14.0 °F 2.0 °F 10.4 °F 86% 30.30 in 10.0 mi East 9.2 mph - N/A   Clear
10:35 PM 14.0 °F 1.2 °F 10.4 °F 86% 30.30 in 10.0 mi East 10.4 mph - N/A   Mostly Cloudy
10:55 PM 14.0 °F 0.5 °F 8.6 °F 79% 30.30 in 10.0 mi East 11.5 mph - N/A   Overcast
11:15 PM 14.0 °F 1.2 °F 8.6 °F 79% 30.29 in 10.0 mi East 10.4 mph - N/A   Scattered Clouds
11:35 PM 14.0 °F 1.2 °F 8.6 °F 79% 30.29 in 10.0 mi East 10.4 mph - N/A   Mostly Cloudy
11:55 PM 14.0 °F 2.9 °F 8.6 °F 79% 30.30 in 10.0 mi ESE 8.1 mph - N/A   Overcast